Location: Chris' Backyard Observatory
(47.3045°N, 122.2839°W)
Time: 00:03:20
(UTC-07:00)

Daily predictions for brighter satellites

Satellite Brightness Start Highest point End
(mag) Time Altitude Azimuth Time Altitude Azimuth Time Altitude Azimuth
Cosmos 1603 3.8 00:08:40 73° N 00:08:40 73° N 00:13:50 10° NNE
Cosmos 1153 Rocket 4.4 00:10:57 88° SSE 00:11:01 89° E 00:17:27 10° N
Cosmos 1943 3.7 00:15:18 51° NE 00:15:18 51° NE 00:19:38 10° NNE
SeaSat 1 3.1 00:15:10 52° NNE 00:15:10 52° NNE 00:19:18 10° NNW
Cosmos 2263 4.3 00:10:27 10° NNW 00:15:21 68° NW 00:15:21 68° NW
Terra 3.8 00:18:33 19° W 00:18:33 19° W 00:21:40 10° NW
Cosmos 2369 Rocket 2.6 00:13:59 10° NNW 00:18:48 55° WNW 00:18:48 55° WNW
Cosmos 2061 Rocket 4.3 00:21:48 55° ENE 00:21:48 55° ENE 00:27:40 10° NNE
H-2A R/B 3.3 00:26:26 41° N 00:26:26 41° N 00:29:27 10° N
Cosmos 1802 Rocket 4.3 00:26:25 56° ENE 00:26:25 56° ENE 00:31:53 10° NNE
Cosmos 2100 Rocket 4.0 00:28:21 75° ENE 00:28:21 75° ENE 00:34:26 10° NNE
ALOS 2 4.0 00:31:31 37° N 00:31:31 37° N 00:34:14 10° NNW
Lacrosse 5 3.1 00:28:46 10° NW 00:31:46 36° WNW 00:31:46 36° WNW
Cosmos 2344 4.1 00:30:34 17° WSW 00:36:40 58° NW 00:45:33 10° NE
CZ-2C R/B 3.5 00:34:45 10° N 00:39:45 42° WNW 00:39:51 42° WNW
ATLAS 5 CENTAUR R/B 3.1 00:50:00 10° NW 00:54:16 43° W 00:54:16 43° W
CZ-4C R/B 3.0 00:57:05 45° WNW 00:57:53 48° NW 01:03:57 10° NE
Cosmos 1725 Rocket 4.0 01:09:12 71° NE 01:09:12 71° NE 01:14:53 10° NNE
Cosmos 2173 Rocket 4.2 01:09:13 60° WNW 01:09:13 60° WNW 01:15:20 10° N
USA 267 4.2 01:03:53 10° NE 01:10:01 46° NNW 01:16:11 10° W
Cosmos 2016 Rocket 4.1 01:23:30 63° WNW 01:23:30 63° WNW 01:29:17 10° N
Mayak 0.7 01:25:35 10° N 01:27:53 26° NNW 01:27:53 26° NNW
Tsikada Rocket 4.1 01:27:37 10° NNW 01:33:14 65° WNW 01:33:14 65° WNW
Cosmos 1943 Rocket 4.2 01:34:46 10° NW 01:36:40 17° WNW 01:36:40 17° WNW
Meteor 1-18 Rocket 4.5 01:45:11 64° NE 01:45:11 64° NE 01:50:05 10° NNE
ADEOS Rocket 3.3 01:40:36 10° N 01:47:36 62° WNW 01:48:04 60° W
COSMOS 2406 3.6 01:55:31 57° ENE 01:55:31 57° ENE 02:00:22 10° NNE
CZ-4B R/B 4.1 02:04:05 20° N 02:04:05 20° N 02:05:18 10° N
Cosmos 1980 Rocket 4.4 02:01:01 10° N 02:05:16 21° NE 02:09:31 10° E
Cosmos 1992 Rocket 4.3 02:07:31 62° N 02:07:31 62° N 02:11:56 10° NNE
Lacrosse 4 Rocket 3.6 02:04:12 10° N 02:07:52 25° NE 02:09:50 18° E
Cosmos 1697 Rocket 4.2 02:03:55 10° NNW 02:09:02 33° NE 02:12:51 16° ESE
CZ-2D R/B 4.0 02:06:33 10° NE 02:10:29 20° E 02:11:21 19° ESE
Cosmos 2082 Rocket 3.8 02:16:53 22° ESE 02:17:15 22° E 02:21:27 10° NE
SL-16 R/B 3.4 02:19:43 30° ESE 02:22:25 47° ENE 02:28:23 10° N
Cosmos 1777 Rocket 4.2 02:21:28 10° NNW 02:26:44 67° ENE 02:26:44 67° ENE
SL-08 R/B 4.3 02:26:34 39° E 02:27:12 41° ENE 02:31:46 10° N
Meteor 2-20 Rocket 4.2 02:25:22 10° N 02:31:28 82° W 02:31:36 81° WSW
Cosmos 1464 Rocket 3.8 02:31:45 79° S 02:32:11 89° E 02:38:30 10° N
Meteor 1-13 Rocket 4.1 02:35:06 79° ESE 02:35:10 79° E 02:40:54 10° NNE
Cosmos 1656 3.7 02:37:59 10° NNW 02:43:45 79° ENE 02:44:34 65° SE
AQUA 4.5 02:44:23 10° NNE 02:48:58 46° E 02:49:06 45° ESE
Cosmos 2369 3.5 02:43:58 10° NNW 02:49:40 90° ENE 02:50:06 77° SSE
UNK 4.0 02:50:34 61° E 02:50:40 61° ENE 02:55:13 10° N
Gbstr 26 Del rocket 4.3 02:51:23 58° SSW 02:52:58 73° SSE 02:59:56 10° ENE
Resurs 1-4 Rocket 2.8 02:48:17 10° NNE 02:53:20 45° E 02:54:13 41° SE
NPP 3.8 02:47:59 10° NNE 02:53:22 64° ESE 02:53:56 60° SE
Nadezhda 4 Rocket 3.8 02:48:18 10° N 02:54:28 90° W 02:55:34 63° S
Cosmos 1513 Rocket 4.3 02:54:42 65° WSW 02:55:18 70° W 03:01:23 10° N
Lacrosse 5 rocket 3.1 02:57:15 24° E 02:57:15 24° E 02:59:40 10° ENE
MOS 1 Rocket 4.1 02:51:50 10° N 02:55:36 41° NW 02:55:36 41° NW
Cosmos 1833 Rocket 3.2 02:55:59 45° SE 02:56:44 48° ESE 03:02:08 10° NE
Cosmos 1891 Rocket 4.3 02:57:20 64° WSW 02:57:54 68° W 03:03:57 10° N
IRS-P3 4.2 02:52:50 10° NNE 02:58:11 65° ESE 02:58:49 60° SE
H-2A R/B 2.7 03:02:10 10° NNE 03:06:04 69° ENE 03:06:04 69° ENE
Cosmos 1975 Rocket 4.5 03:08:54 28° NW 03:08:54 28° NW 03:12:02 10° N
Cosmos 1515 4.4 03:11:09 53° N 03:11:09 53° N 03:14:09 10° N
Cosmos 1455 Rocket 4.3 03:06:43 10° NNW 03:09:21 30° NW 03:09:21 30° NW
Cosmos 332 Rocket 3.6 03:13:09 78° SE 03:13:20 80° ESE 03:18:09 10° NNE
Cosmos 371 Rocket 3.2 03:14:46 74° SSE 03:15:03 77° ESE 03:19:56 10° NNE
Meteor 1-23 Rocket 4.2 03:19:29 59° SSW 03:20:40 84° WNW 03:26:25 10° N
SAR-Lupe-2 4.0 03:24:35 59° NNE 03:24:35 59° NNE 03:27:42 10° N
Cosmos 1356 4.1 03:26:05 52° NE 03:26:05 52° NE 03:28:58 10° NNE
Meteor 2-4 Rocket 3.9 03:25:39 46° W 03:26:09 47° WNW 03:31:21 10° N
COSMOS 2487 4.1 03:26:19 28° ESE 03:26:21 28° ESE 03:29:24 10° NE
Cosmos 2026 Rocket 4.2 03:21:25 10° N 03:27:50 74° E 03:31:55 24° SSE
CBERS-1 3.9 03:24:14 10° N 03:29:20 71° WNW 03:30:08 59° SW
Cosmos 1025 Rocket 3.0 03:29:58 64° SE 03:30:24 71° E 03:34:41 10° NNE
Cosmos 1536 Rocket 4.1 03:40:19 41° WNW 03:40:19 41° WNW 03:44:18 10° N
Cosmos 1898 Rocket 3.9 03:36:14 10° NNW 03:41:25 63° ENE 03:46:35 10° SSE
Cosmos 2278 4.1 03:37:17 10° NW 03:42:26 41° WSW 03:42:26 41° WSW
UNKNOWN OBJECT B 3.9 03:40:48 10° NNE 03:44:28 38° E 03:45:45 29° SE
Cosmos 909 Rocket 4.4 03:40:45 10° NW 03:46:35 42° WSW 03:47:34 39° SW
Lacrosse 4 Rocket 1.9 03:42:31 10° NW 03:46:05 45° W 03:46:05 45° W
Cosmos 2195 Rocket 4.4 03:42:37 10° NNW 03:48:46 71° W 03:51:44 32° S
Cosmos 1980 Rocket 2.0 03:44:21 10° NNW 03:49:59 82° WSW 03:55:36 10° SSE
Cosmos 1570 Rocket 4.2 03:48:34 37° S 03:50:37 70° ESE 03:55:56 10° NNE
CZ-2D R/B 2.2 03:45:39 10° N 03:51:01 64° WNW 03:52:41 42° SW
Cosmos 1340 Rocket 3.4 03:51:49 39° WNW 03:51:49 39° WNW 03:55:22 10° N
Cosmos 1697 Rocket 2.9 03:47:46 10° NW 03:53:12 47° WSW 03:54:29 40° SW
Cosmos 304 Rocket 4.0 03:52:17 38° S 03:54:03 66° ESE 03:58:52 10° NNE
Cosmos 1655 Rocket 4.1 03:48:00 10° N 03:54:23 78° E 04:00:47 10° SSE
Cosmos 1937 Rocket 4.0 03:49:35 10° NNW 03:54:45 60° ENE 03:59:51 10° SE
USA 215 4.3 03:51:55 10° ENE 03:57:48 34° SE 04:01:38 19° S
Cosmos 1867 3.9 03:52:47 10° NW 03:57:55 42° WSW 03:58:36 40° SW
MOZ.5/SAFIR/RUBIN 5/SL-8 4.0 03:57:34 45° SW 03:58:20 50° W 04:02:59 10° NNW
Spot 4 Rocket 4.0 03:53:27 10° NNE 03:58:38 78° WNW 04:00:41 38° SSW
Cosmos 1092 Rocket 4.4 03:54:07 10° NNW 03:59:57 44° W 04:01:57 34° SW
SL-16 R/B 3.3 03:54:44 10° NNW 04:00:13 47° NE 04:05:40 10° SE
Cosmos 1607 4.1 03:57:53 34° WSW 04:00:48 66° NW 04:07:18 10° NE
Cosmos 2082 Rocket 2.3 03:58:43 38° SW 04:00:49 65° WNW 04:06:27 10° NNE
Meteor 1-22 Rocket 4.4 03:55:55 10° N 04:02:00 81° ENE 04:07:48 10° SSE
ARIANE 5 R/B 2.5 03:56:51 10° NNE 04:02:06 76° WNW 04:04:20 35° SSW
Cosmos 2142 Rocket 4.4 03:59:16 32° SSW 04:02:20 75° W 04:08:31 10° N
SL-08 R/B 4.5 04:05:33 26° W 04:05:33 26° W 04:09:15 10° NW
SL-16 R/B 3.2 04:04:47 31° WSW 04:06:10 35° W 04:11:51 10° NNW
Iridium 4 Rocket 3.6 04:06:37 37° W 04:07:05 39° W 04:11:17 10° N
Cosmos 468 Rocket 4.2 04:08:02 26° S 04:11:02 71° ESE 04:16:21 10° NNE
Cosmos 990 Rocket 4.0 04:08:01 10° NNW 04:13:12 83° ENE 04:18:22 10° SSE
Cosmos 1842 4.2 04:11:49 17° SSE 04:14:36 46° E 04:18:25 10° NNE
Cosmos 2150 Rocket 4.5 04:09:22 10° NNW 04:14:51 66° ENE 04:20:16 10° SSE
Cosmos 1726 Rocket 3.4 04:10:51 10° NNW 04:15:11 77° W 04:17:50 23° S
Cosmos 1953 4.4 04:13:21 10° NNE 04:16:56 28° ENE 04:20:29 10° SE
Cosmos 2322 Rocket 2.8 04:11:37 10° NNW 04:17:13 58° ENE 04:22:45 10° SE
Cosmos 1544 3.3 04:15:20 10° NNW 04:18:52 48° W 04:19:25 44° SW
Cosmos 1356 Rocket 3.3 04:18:10 38° SSW 04:19:32 67° WNW 04:23:35 10° N
Okean 1-7 Rocket 3.7 04:17:54 35° SW 04:19:38 60° WNW 04:24:07 10° N
CZ-2D R/B 3.3 04:15:39 10° NNE 04:19:43 84° WNW 04:21:42 30° SSW
Cosmos 2298 Rocket 4.1 04:15:58 10° NNW 04:21:20 81° ENE 04:26:38 10° SSE
ADEOS II 2.5 04:16:36 10° NNE 04:21:49 61° E 04:26:40 12° S
IRS-1D 4.2 04:19:47 10° N 04:24:32 39° WNW 04:26:46 26° WSW
ADEOS 3.5 04:22:46 10° NNE 04:28:00 77° WNW 04:31:32 21° SSW
Cosmos 1805 3.2 04:24:21 10° N 04:28:17 88° ENE 04:32:11 10° S
Helios 1A Rocket 3.2 04:25:37 10° N 04:29:40 51° WNW 04:31:28 29° SW
Cosmos 2058 Rocket 3.0 04:26:59 10° NNW 04:31:24 74° W 04:35:49 10° S
Cosmos 1766 3.3 04:28:43 10° NNW 04:32:31 55° W 04:34:46 22° SSW
Resurs 1-4 Rocket 3.2 04:28:30 10° N 04:32:59 29° WNW 04:35:17 21° WSW
USA 267 3.9 04:28:13 10° E 04:34:36 58° NNE 04:41:00 10° NW
Lacrosse 5 rocket 1.7 04:32:55 26° WSW 04:35:06 56° NNW 04:39:06 10° NE
USA 238 DEB 4.3 04:31:19 13° SSW 04:37:16 53° ESE 04:43:59 10° NE
USA 238 4.3 04:31:24 13° SSW 04:37:22 52° ESE 04:44:06 10° NE
Cosmos 44 3.4 04:33:54 10° NW 04:39:07 83° SW 04:44:29 10° SSE
Cosmos 1833 Rocket 3.7 04:37:40 19° W 04:40:52 33° NW 04:45:56 10° NNE
Cosmos 1758 3.6 04:37:41 10° N 04:41:40 68° ENE 04:45:37 10° SSE
Cosmos 1606 Rocket 4.3 04:38:35 10° NNW 04:42:27 33° W 04:44:21 23° SW
Cosmos 2228 3.3 04:43:23 10° NNW 04:47:30 45° W 04:51:04 13° SSW
Cosmos 841 Rocket 3.7 04:45:23 10° S 04:50:30 69° ESE 04:55:42 10° NNE
Cosmos 1626 Rocket 3.9 04:47:42 10° S 04:51:57 65° E 04:56:15 10° NNE
Cosmos 1892 Rocket 4.1 04:54:21 18° SW 04:57:17 41° WNW 05:01:29 10° N
SJ 16-02 2.0 04:54:16 10° NNW 04:58:38 59° ENE 05:03:00 10° SSE
Cosmos 44 Rocket 3.4 04:54:34 10° NW 04:59:43 81° SW 05:04:54 10° SSE
CZ-4B R/B 3.9 04:56:57 10° NNE 05:01:09 49° E 05:05:08 10° S
COSMOS 2487 4.0 05:00:04 16° W 05:01:40 22° WNW 05:04:29 10° N
Gblst 52 Del rocket 4.5 04:56:25 10° WNW 05:02:22 87° NNE 05:09:08 10° ESE
Cosmos 1733 3.2 05:09:12 10° NNW 05:13:03 64° W 05:16:52 10° S
Cosmos 540 Rocket 3.9 05:08:41 10° S 05:13:45 64° ESE 05:18:51 10° NNE
USA 161 2.9 05:10:52 10° SSE 05:13:47 44° ENE 05:16:39 10° N
Cosmos 1763 Rocket 3.8 05:13:36 11° SW 05:18:37 53° WNW 05:23:50 10° NNE
UNKNOWN OBJECT B 4.4 05:15:50 10° NNW 05:18:41 20° WNW 05:21:12 11° WSW
Okean O Rocket 2.4 05:21:43 10° NNE 05:26:01 53° E 05:30:16 10° S
ATLAS CENTAUR R/B 2.2 05:22:06 10° NNW 05:26:22 60° NE 05:30:55 10° SE
Cosmos 1470 2.9 05:24:34 10° NNW 05:28:31 56° W 05:32:24 10° S
Timation 2 Rocket 4.0 05:23:16 10° SW 05:29:15 62° WNW 05:35:11 10° NNE
ATLAS 3B R/B 2.8 05:22:30 10° SW 05:29:42 89° ESE 05:36:38 10° NE
CZ-2D R/B 4.2 05:28:10 10° NNW 05:30:02 12° NW 05:31:53 10° WNW
BREEZE-M R/B 3.5 05:26:35 10° WSW 05:30:12 75° SSE 05:37:45 10° ENE
Cosmos 1238 Rocket 4.5 05:24:55 10° S 05:31:21 73° E 05:38:03 10° NNE
Cosmos 2360 Rocket 2.2 05:25:50 10° NNW 05:31:30 88° WSW 05:37:08 10° SSE
NOSS 3-2 (A) 3.8 05:26:32 10° SSW 05:32:25 68° SE 05:39:01 10° NE
Cosmos 1980 Rocket 3.8 05:30:36 10° WNW 05:33:03 13° W 05:35:30 10° WSW
MOS 1-B 4.4 05:28:10 10° NNE 05:34:01 79° WNW 05:39:49 10° SSW
Cosmos 1125 Rocket 3.5 05:30:58 10° NNW 05:36:17 74° WSW 05:41:33 10° SSE
Cosmos 2333 Rocket 4.2 05:33:35 10° NNW 05:38:43 34° NE 05:43:49 10° ESE
USA 215 3.4 05:34:39 10° NE 05:41:13 82° NNW 05:47:46 10° WSW
